Starlink 31343

operational
NORAD ID: 59093 Int'l Des: 2024-041 Owner: SPXS Country: US Constellation: starlink
LEOCIRCULAR

Über Starlink 31343

Beschreibung wird geladen...

Live-Position

3D-Globus wird geladen...

Nächste Überflüge

Höhenverlauf

Altitude vs Time

uPlot chart will show altitude changes over time

Zweizeiliger Elementsatz

1 59093U 24041V 25303.47368404 .00000490 00000-0 27344-4 0 9993
2 59093 43.0033 326.3502 0001119 256.8754 103.1972 15.27574129 94404
Epoch: 30. Okt. 2025 • Age: 21 hours

Aktueller Status

Höhe 489.7 km
Geschwindigkeit 7.62 km/s
Subsatellitenpunkt -27.83°S, 4.57°E
Startdatum 29. Feb. 2024
Alter 1.6 years
Typ internet

Technische Details

Klassifizierung Payload
Masse 730.00 kg
Trockenmasse 700.00 kg
Gesamtmasse 730.00 kg
Länge 0.30 m
Durchmesser 4.10 m
Spannweite 29.00 m
Form Box + pan
Hersteller SPXS
Bus-Typ Starlink V2M
Phasenstatus In Orbit
Besitzer/Staat SPXS/US

Große Konstellationen

Loading constellations...